Wind_Speed
22 23 23 24 26 27 27 29 30 31 31 31 32 32 32 33 33 33 32 30 29 29 28 28 27 24 22 21 20 19 20 20 16 9 4 2 2 3 4 6 5 6 8 9 9 6 6 5 8 12 7 2 1 1 1 1 2 3 3 1 2 3 4 5 6 6 4 5 6 4 4 6 7 5 3 4 2 6 6 7 6 6 7 5 4 4 10 19
22 23 23 25 26 27 28 29 30 31 31 32 32 32 32 33 34 34 34 33 30 29 29 27 25 23 21 21 21 20 21 20 14 6 1 4 4 2 4 4 4 5 6 6 6 5 5 5 6 9 5 1 2 1 1 1 1 2 3 1 3 5 5 5 7 6 4 7 7 5 4 6 7 4 1 4 7 6 8 10 5 8 11 5 1 7 16 22
22 23 24 25 26 27 28 29 30 31 31 32 32 32 32 33 34 35 35 35 33 30 29 26 23 22 20 20 21 20 20 15 7 3 4 7 3 1 2 3 3 5 5 4 5 4 3 5 7 6 3 2 3 0 1 1 1 2 3 2 6 7 5 5 7 7 7 8 8 7 4 4 6 3 1 4 9 9 10 12 7 9 13 8 4 8 15 17
22 23 25 26 27 28 29 29 30 31 32 32 33 33 33 34 35 35 35 35 33 30 28 24 21 21 20 19 20 19 16 7 2 1 5 6 3 0 2 2 3 4 5 4 4 5 5 5 5 3 2 3 4 2 1 3 2 1 3 5 7 4 4 8 8 8 8 6 7 5 2 5 5 3 3 3 6 10 12 12 12 13 13 9 7 8 10 12
22 23 24 26 27 28 28 29 30 31 32 32 33 34 34 35 35 35 34 33 31 28 27 24 20 20 19 19 18 16 10 4 1 1 5 5 2 1 1 2 3 4 5 5 4 5 6 4 3 4 3 2 4 3 2 4 2 1 4 7 7 3 5 9 6 8 6 3 6 5 4 6 2 2 6 6 6 11 11 8 11 13 12 10 10 9 8 9
21 23 24 25 26 27 28 29 30 30 31 33 34 34 35 35 35 34 32 30 28 27 27 23 20 19 19 19 15 10 6 2 4 2 2 2 1 0 2 2 3 4 5 4 4 5 4 4 5 3 3 2 3 2 5 3 2 2 5 6 7 5 6 6 3 6 5 4 7 6 5 3 2 6 6 9 14 18 15 7 7 11 11 9 9 10 10 11
21 23 24 25 26 26 28 29 29 30 31 33 34 35 35 35 35 33 30 28 25 26 26 21 19 18 17 17 11 6 5 2 8 5 3 0 1 1 2 3 3 4 4 4 6 5 3 5 5 1 2 3 3 4 5 4 1 3 5 7 8 7 8 7 6 6 4 7 10 4 4 6 9 7 1 9 18 19 17 10 7 9 6 6 9 12 14 14
22 23 24 25 26 26 28 28 29 31 32 33 34 35 35 35 34 31 28 25 25 26 24 19 17 17 17 13 7 5 2 4 8 4 4 1 1 2 3 3 3 4 3 4 6 3 2 3 2 1 2 3 2 4 4 4 2 5 6 7 6 6 8 8 7 8 7 8 8 5 8 15 13 3 5 16 21 17 14 10 9 8 5 6 10 13 14 14
22 23 24 25 25 26 27 28 30 31 32 33 34 35 34 34 32 29 25 24 26 25 21 17 15 16 15 9 6 5 3 3 6 2 1 2 2 3 5 4 4 6 3 4 5 2 1 1 2 0 1 4 3 4 3 3 3 5 4 6 6 8 9 8 8 10 8 5 4 6 14 18 8 1 8 21 22 16 9 7 9 7 8 10 10 13 13 14
22 23 24 24 25 26 26 28 30 31 32 33 34 34 33 32 30 27 23 23 24 21 19 16 14 17 14 6 6 4 3 3 5 4 4 4 5 6 6 5 5 6 4 5 4 1 1 3 3 2 3 3 2 4 2 0 3 3 3 6 9 11 11 7 10 12 8 5 6 8 16 15 3 3 9 17 15 7 4 7 8 7 10 12 12 12 11 12
21 22 22 23 24 24 26 28 30 31 32 32 34 34 31 30 28 26 22 23 21 17 18 18 17 17 12 5 4 2 5 5 6 5 5 6 7 8 6 5 5 5 5 4 3 1 3 4 2 2 1 2 3 4 4 3 3 4 3 8 11 9 10 9 10 11 5 4 6 9 16 12 3 4 13 18 12 3 4 9 6 7 11 12 13 11 9 10
20 20 21 22 22 24 26 28 30 31 31 32 33 33 30 27 28 26 22 22 18 14 20 24 21 16 9 4 3 3 6 7 6 6 7 8 9 9 6 5 6 6 5 3 4 5 5 3 1 1 3 1 3 4 4 3 3 4 2 7 11 5 8 11 7 5 2 1 3 4 11 11 7 13 19 19 13 2 3 9 7 9 11 10 12 10 9 10
19 19 20 20 21 23 25 27 30 31 32 33 33 33 28 24 28 26 22 20 14 16 27 27 18 10 4 2 1 2 5 5 6 6 7 8 9 8 7 6 7 6 4 4 7 7 6 4 1 3 3 0 3 3 3 5 3 5 2 3 8 7 6 8 4 2 1 1 2 3 8 15 10 17 19 15 12 7 5 10 9 8 9 10 10 9 10 11
19 19 19 19 20 22 24 27 30 30 32 32 33 32 24 24 27 23 21 15 12 24 32 21 8 2 2 0 0 3 4 4 5 6 7 8 8 8 7 6 6 5 5 7 9 8 6 4 1 1 1 2 4 5 6 6 3 4 3 1 4 4 6 7 3 1 0 2 1 3 3 17 19 12 15 15 10 7 9 11 10 9 8 9 10 10 12 12
18 18 18 19 20 22 24 26 29 30 31 31 34 31 22 23 24 19 16 9 17 32 25 10 4 3 3 2 1 1 2 3 4 7 8 9 9 8 7 6 5 5 6 7 7 6 4 1 2 1 2 2 1 4 5 5 4 3 3 5 3 2 6 8 3 4 3 3 2 1 3 15 24 12 8 10 5 5 10 11 10 10 10 10 10 11 12 13
18 18 19 19 20 22 23 26 27 29 31 32 35 28 19 21 20 14 10 12 27 29 10 6 4 4 3 1 1 1 2 4 6 9 10 10 10 9 8 8 6 5 6 6 5 4 2 2 1 2 1 3 3 4 4 4 4 3 1 5 5 3 6 7 5 4 3 1 1 3 6 13 22 13 3 3 2 6 9 11 12 11 11 11 11 10 11 12
18 19 20 20 21 22 23 25 25 27 31 33 35 26 16 19 16 7 10 22 27 14 6 6 3 4 2 1 1 3 3 7 10 12 12 12 11 9 9 7 4 4 5 5 3 3 2 2 1 0 3 3 2 4 5 5 5 5 1 4 5 4 5 6 7 6 1 3 4 3 7 17 25 24 15 5 7 9 11 12 13 11 12 12 11 11 11 12
19 19 21 21 21 21 22 23 23 27 30 32 34 22 13 19 11 3 18 31 17 2 7 5 3 4 1 1 2 6 10 13 16 15 12 10 8 7 6 3 2 5 5 4 3 4 3 3 2 1 4 4 1 4 1 5 6 6 5 4 6 5 6 7 6 5 4 5 6 3 7 22 27 29 27 10 9 12 13 12 12 11 13 13 12 12 12 13
19 20 21 21 21 20 21 22 22 25 28 32 32 15 11 19 5 2 24 31 9 2 3 3 4 2 4 6 4 11 16 16 15 10 6 5 4 4 3 1 3 3 4 4 4 4 2 3 3 2 4 4 3 5 6 10 9 7 7 5 7 9 9 10 8 6 5 8 10 6 8 22 25 26 31 17 6 11 12 9 10 10 12 13 12 14 13 14
19 20 20 20 21 19 20 21 20 23 26 31 30 13 9 15 5 2 19 19 2 2 7 6 2 1 7 8 7 14 15 9 6 3 4 6 4 4 2 2 5 5 3 0 3 4 2 1 4 5 8 9 7 7 9 11 9 5 5 6 9 10 10 13 12 7 5 4 13 10 9 20 24 24 30 24 8 8 9 9 11 11 12 12 14 17 16 16
19 20 20 20 21 19 19 19 18 20 21 27 28 14 3 5 4 4 9 11 5 4 6 9 4 5 9 10 11 11 6 3 4 3 5 5 4 4 2 3 6 5 3 2 1 3 2 1 7 10 10 10 7 7 8 10 8 5 5 7 9 9 10 13 12 10 3 4 12 12 10 19 23 23 28 25 16 10 9 12 14 14 13 13 15 18 18 16
19 20 20 21 21 18 18 16 15 17 18 24 26 14 4 2 1 3 1 8 9 2 4 5 2 4 10 10 10 5 3 4 6 6 3 2 5 4 2 4 4 5 5 1 3 5 2 5 12 11 6 4 6 6 7 9 8 5 4 5 8 7 8 11 11 10 3 5 10 11 8 16 21 23 28 26 20 14 12 14 14 14 14 13 14 16 17 17
20 21 20 21 21 18 17 12 11 15 18 22 21 12 3 3 1 5 2 2 8 4 2 1 2 3 6 4 3 3 3 3 5 7 3 0 4 2 1 3 2 5 5 2 3 3 4 8 10 7 3 3 7 6 5 8 6 4 4 4 8 8 6 8 10 10 4 4 10 8 4 11 18 21 25 26 19 11 10 12 13 12 13 15 15 15 15 18
20 21 20 21 20 18 14 8 8 14 14 15 16 12 6 5 1 4 4 0 5 6 2 1 0 1 3 3 3 3 2 1 3 5 2 1 2 2 1 3 2 4 6 5 3 3 10 13 7 5 5 4 7 7 5 6 6 6 6 6 9 11 10 11 10 8 7 9 13 8 2 6 13 19 22 21 16 10 7 8 11 10 11 14 15 16 17 17
20 20 20 20 19 17 11 4 8 11 7 8 12 13 9 7 3 5 3 2 3 6 3 1 1 1 2 3 3 2 0 3 5 4 2 1 0 2 2 2 0 4 10 7 1 4 11 11 5 5 6 2 2 7 5 4 6 8 7 8 11 13 13 13 11 7 5 10 12 7 4 4 8 16 22 18 17 19 14 10 14 13 11 12 13 16 18 17
19 19 18 17 17 17 9 2 8 9 3 4 10 15 13 11 5 5 2 4 2 6 3 1 2 2 4 5 4 1 2 3 6 4 1 0 0 2 3 3 0 5 10 6 2 3 6 5 4 3 6 6 4 7 6 5 3 8 7 5 7 10 10 10 9 4 2 9 9 2 4 8 6 12 23 20 18 25 23 19 20 16 12 12 13 14 15 15
17 17 16 13 13 15 7 1 8 7 1 4 12 16 16 14 6 3 0 5 1 3 2 2 2 3 4 4 4 3 2 7 6 3 1 1 3 3 2 5 3 5 4 3 4 3 3 8 8 6 6 7 5 8 7 6 2 8 5 5 7 9 11 10 7 6 5 7 11 5 5 7 7 11 22 21 19 25 24 24 23 17 13 13 14 15 14 15
15 15 13 9 8 10 6 3 5 3 1 6 14 16 17 15 7 2 3 3 2 1 1 2 1 3 4 4 4 3 4 7 4 3 3 3 3 4 3 5 5 8 4 2 7 5 1 7 9 6 6 5 6 11 7 4 3 10 6 5 8 9 9 7 6 8 4 2 12 12 5 5 8 10 17 17 16 22 24 25 23 19 15 12 13 15 14 15
12 13 11 6 4 3 3 3 2 1 2 8 13 17 17 13 5 3 5 2 3 1 1 1 2 2 6 6 4 2 3 3 1 4 5 4 3 3 2 5 4 7 5 1 8 9 3 3 2 2 4 6 7 10 4 4 5 9 6 6 8 7 6 6 7 8 2 2 14 17 6 5 9 8 12 13 13 18 20 19 17 17 15 11 12 13 12 14
11 10 9 5 3 1 2 3 1 2 5 9 13 17 14 7 3 5 3 4 2 2 1 3 2 2 6 8 6 5 4 3 3 3 5 2 4 4 2 3 1 3 5 2 6 11 8 2 1 2 5 3 4 7 1 6 7 5 4 6 7 6 6 6 6 3 1 5 16 21 13 9 9 9 10 10 14 18 17 15 17 18 17 14 12 10 10 13
9 8 6 4 2 1 2 3 3 4 8 10 13 13 7 3 5 4 4 5 1 3 2 4 3 3 6 7 5 5 3 6 4 5 5 3 5 6 4 4 4 3 5 5 5 9 8 5 2 4 2 2 3 6 3 1 2 1 1 4 5 7 5 3 3 1 2 9 14 18 16 10 10 12 10 11 15 19 18 17 19 18 17 17 14 10 9 10
8 6 4 2 1 1 2 3 4 6 9 10 10 6 4 4 3 2 5 5 2 2 2 2 2 4 6 3 3 5 3 5 4 5 5 5 3 5 4 2 3 5 6 6 6 8 7 5 5 5 1 4 5 7 6 5 4 3 4 5 7 8 5 4 4 2 6 11 11 12 9 6 11 13 12 14 16 20 21 19 17 16 14 16 15 13 11 12
6 3 1 1 1 1 1 3 4 6 8 7 6 4 7 4 4 4 3 3 2 2 1 1 2 4 6 4 3 5 4 2 3 6 6 5 4 5 5 3 1 3 4 6 8 7 6 5 2 3 2 3 6 7 7 6 4 4 6 6 6 6 7 8 7 6 9 10 9 10 6 5 11 10 10 15 19 22 22 16 13 12 11 12 14 13 13 16
3 1 2 3 4 2 1 1 3 4 5 5 4 5 4 2 5 3 3 4 4 2 2 2 5 6 4 3 3 4 4 3 5 8 7 5 5 5 6 4 3 1 1 5 5 4 8 8 0 1 3 2 7 6 5 4 5 5 4 2 3 4 7 10 8 9 12 10 11 12 7 5 8 7 6 12 16 16 13 11 13 13 13 13 14 15 16 18
3 4 4 3 3 2 2 2 2 3 3 4 6 5 1 4 5 2 3 4 2 3 3 3 5 5 4 3 3 5 5 3 6 8 4 3 4 4 4 3 5 5 4 3 5 3 7 11 4 1 3 6 11 6 2 1 5 4 1 1 6 5 6 10 11 13 16 13 10 10 8 6 6 9 8 11 14 13 13 15 16 17 16 16 17 18 19 19
6 5 4 2 0 1 2 1 1 3 4 5 5 2 4 5 4 3 4 2 1 1 4 5 3 2 4 4 3 6 5 2 5 5 2 1 3 5 2 1 3 5 5 2 4 4 5 10 11 10 9 9 7 3 1 3 4 5 4 6 10 7 5 10 12 12 15 14 9 8 10 7 7 9 7 13 18 16 17 19 19 19 20 21 20 20 21 21
6 5 3 1 2 2 1 0 3 4 4 6 4 4 4 4 4 4 2 1 1 3 4 3 1 1 2 3 3 4 5 3 3 3 3 2 2 3 2 3 4 7 7 3 3 4 5 10 16 17 14 8 3 2 5 5 3 5 7 8 8 6 5 7 9 9 10 12 8 8 13 11 10 7 7 18 21 16 17 20 22 25 25 25 24 24 26 26
6 5 2 2 2 1 0 3 5 4 4 4 1 4 3 2 2 2 1 1 2 4 4 1 2 2 1 2 4 4 4 4 3 3 3 1 2 1 4 3 3 7 7 5 2 3 4 8 13 13 11 8 7 9 9 5 2 4 7 6 5 7 7 5 7 9 9 10 9 12 16 13 8 7 11 19 18 13 16 19 23 28 27 26 26 27 29 28
6 3 1 2 2 1 2 5 5 5 4 3 2 3 2 3 3 1 1 2 2 3 2 3 2 1 1 1 3 4 3 3 2 3 2 1 3 2 7 4 4 7 8 4 2 3 3 5 9 9 12 13 10 8 8 8 5 5 8 7 3 5 9 7 6 8 10 11 12 13 13 5 2 9 16 16 13 15 22 24 24 28 29 25 24 24 25 24
4 2 1 1 3 3 6 6 4 4 3 3 4 3 2 2 3 2 1 3 2 1 1 3 1 2 3 3 3 3 3 4 3 3 2 2 4 3 6 3 5 9 9 5 5 3 2 4 9 9 13 13 10 6 5 8 8 8 10 11 8 7 8 8 7 7 8 9 9 10 10 5 5 12 14 13 18 23 26 28 27 27 28 26 23 24 24 23
3 1 2 1 4 6 7 4 2 3 2 1 2 2 2 1 2 3 2 3 1 1 2 3 3 2 3 3 3 2 2 4 3 2 3 3 5 3 4 5 6 7 6 4 5 4 2 3 8 10 10 10 12 10 8 11 12 11 11 11 11 9 8 8 7 5 6 8 9 11 15 11 5 8 11 15 23 25 25 29 28 27 28 27 24 25 24 23
3 1 2 3 6 6 4 2 0 2 2 1 1 2 2 1 1 3 4 4 2 0 1 2 2 2 3 2 2 2 2 3 3 2 3 4 3 1 3 6 6 3 2 2 2 2 1 3 6 8 9 11 17 17 14 14 14 13 11 9 8 7 8 9 9 9 9 12 12 12 15 11 2 6 14 16 18 20 22 26 28 27 28 27 27 27 26 25
2 2 2 4 5 4 2 1 1 1 2 2 2 2 1 0 1 2 2 3 2 1 2 0 1 1 2 2 1 2 2 3 5 3 2 3 2 4 5 9 9 5 4 2 3 4 3 3 6 8 8 12 18 15 10 9 9 9 10 9 9 10 10 10 11 11 11 12 11 10 13 10 3 6 12 14 17 19 20 23 25 24 23 25 28 27 26 26
2 2 1 1 2 2 2 2 2 3 3 2 1 2 2 0 1 1 1 2 1 1 1 1 1 1 2 1 1 2 3 2 4 5 3 2 3 2 7 12 11 6 4 2 3 4 4 4 6 8 9 12 13 9 6 5 6 8 11 13 15 17 17 15 12 10 10 12 13 12 12 9 6 9 15 18 21 21 20 20 20 19 18 21 24 24 24 25
2 1 0 1 1 0 2 3 3 3 2 1 1 2 2 1 1 1 2 2 0 2 1 1 1 1 1 3 4 2 2 1 2 6 4 3 5 1 6 12 9 4 1 5 3 1 2 4 5 5 7 12 13 9 8 8 7 8 12 17 18 18 18 16 11 9 10 14 14 12 13 13 13 16 20 21 22 22 21 19 18 17 18 19 20 21 23 22
2 1 1 1 2 2 1 1 3 3 2 3 1 2 2 1 3 1 2 1 1 2 1 1 1 3 4 5 5 2 3 2 2 4 4 5 4 3 6 12 7 2 5 5 4 3 1 5 7 6 8 13 15 14 13 12 12 13 16 19 18 16 16 14 10 10 13 14 13 11 16 20 19 18 21 22 22 19 17 17 17 17 18 19 20 21 21 18
1 2 3 2 0 1 1 1 2 2 2 3 2 1 2 2 2 2 1 1 1 2 3 3 4 4 2 3 3 2 3 4 4 4 4 5 5 6 10 12 8 7 6 2 5 2 2 6 10 11 13 18 20 19 17 15 16 19 20 21 19 17 18 17 14 15 16 15 12 13 18 21 20 20 23 23 19 14 12 14 15 15 17 18 20 22 21 17
1 1 1 1 1 2 1 2 5 4 3 3 2 1 2 2 1 1 2 2 2 1 2 2 4 4 1 1 2 1 4 5 5 3 2 4 6 8 10 10 9 6 1 2 0 1 2 8 12 13 15 20 21 19 17 17 19 20 21 22 21 19 20 20 20 22 20 16 15 18 21 22 22 22 21 18 13 10 10 12 13 15 17 19 21 22 19 16
2 0 2 2 1 2 2 2 5 5 4 3 1 1 3 4 3 3 1 1 3 3 3 3 2 2 1 2 3 2 3 4 5 3 3 5 7 6 6 8 7 3 1 3 5 3 4 7 11 11 13 18 20 18 18 19 19 19 20 22 21 21 23 25 24 23 21 17 18 22 24 24 21 17 15 14 10 8 10 12 13 15 19 21 22 19 15 16
2 1 1 2 2 1 2 3 4 4 2 2 2 2 3 5 4 2 1 2 1 2 3 4 3 3 4 4 3 2 3 3 5 5 5 6 8 6 4 5 6 6 7 8 5 4 4 6 10 11 10 14 18 17 16 16 18 20 21 22 23 23 23 22 19 17 17 18 21 23 23 20 14 12 14 14 9 8 13 15 15 16 18 21 21 16 14 18
2 1 3 4 2 2 2 2 3 4 1 2 3 3 3 4 5 3 1 1 4 3 3 4 4 3 3 4 2 3 5 4 6 8 7 6 7 6 4 6 8 9 9 8 6 4 4 5 8 8 8 12 15 16 17 18 19 20 21 21 21 19 17 16 16 17 18 20 22 21 17 13 11 14 16 13 9 10 15 18 18 17 18 19 17 14 14 17
4 2 2 3 2 2 3 2 3 3 2 3 4 3 2 4 5 4 1 2 4 6 6 5 5 2 0 2 3 4 6 6 7 9 8 8 10 10 9 10 11 10 7 7 6 5 5 5 6 6 7 10 13 16 18 17 15 13 13 15 16 16 19 21 21 23 22 17 15 14 12 12 15 16 16 15 14 14 15 16 18 19 20 17 13 12 14 17
Wind_Direction
27 27 26 25 24 23 21 19 18 16 15 12 11 9 6 4 1 359 356 353 350 347 345 343 343 342 340 340 337 333 328 324 322 316 292 246 196 239 290 307 310 313 319 320 320 335 343 354 13 5 4 348 340 329 334 82 82 53 93 79 303 231 212 199 201 202 206 265 266 263 223 209 270 289 284 336 279 249 271 260 254 273 255 232 253 219 166 162
25 24 24 24 23 21 19 18 16 14 13 11 10 8 6 3 359 358 355 351 347 343 343 342 342 340 341 342 336 333 329 324 324 318 248 146 157 243 278 294 300 313 324 324 324 353 357 330 347 6 24 338 291 309 340 324 109 113 133 236 256 212 218 199 198 214 218 255 262 259 240 219 245 263 308 290 272 268 274 268 250 261 264 264 253 158 157 160
22 22 22 21 20 18 17 15 14 12 11 9 8 6 4 1 359 357 354 350 345 341 341 343 342 339 342 343 337 335 329 326 342 15 111 126 133 276 278 281 307 324 328 315 306 327 328 299 321 351 26 318 282 4 36 311 232 178 142 247 247 220 244 241 216 226 231 247 269 272 261 237 234 219 146 259 279 276 255 258 244 244 253 243 209 164 162 163
21 20 20 18 17 16 14 13 12 10 8 7 6 5 3 360 358 355 352 348 344 341 342 345 343 338 341 343 341 334 329 347 25 21 115 111 103 278 266 280 329 331 319 310 305 312 307 303 319 357 27 315 304 37 153 240 230 167 153 216 240 208 266 261 234 241 241 238 254 262 322 286 254 186 199 234 290 283 255 243 233 237 247 230 199 188 178 170
19 19 18 16 14 13 11 10 9 8 7 6 5 3 1 358 355 352 350 347 344 343 344 346 342 339 340 345 346 336 340 43 4 322 116 93 88 211 292 312 328 325 320 321 321 326 320 327 52 50 25 302 323 18 237 230 151 194 219 233 247 198 264 267 239 246 238 221 263 267 282 272 260 181 215 211 236 259 257 233 217 229 241 226 191 190 190 181
18 18 16 13 11 9 8 7 6 6 5 5 4 2 359 355 352 349 347 345 345 343 343 343 340 341 343 346 351 355 25 58 312 343 132 69 70 259 348 310 311 321 321 327 337 359 5 19 46 36 2 312 295 272 260 266 129 241 270 268 267 233 249 271 257 246 204 199 255 254 263 262 266 267 226 204 229 245 254 234 204 226 231 215 181 174 188 194
18 15 14 10 8 7 5 4 4 4 4 4 2 359 356 352 350 347 344 343 342 339 339 339 337 344 349 352 358 28 65 275 310 321 247 349 25 308 330 286 301 321 322 344 351 10 37 23 23 21 326 310 280 263 280 321 91 225 274 286 282 264 248 260 273 268 210 219 249 269 316 280 248 263 280 230 242 248 256 254 232 238 223 183 171 178 192 198
16 13 11 7 5 4 3 3 3 3 3 2 359 357 354 350 348 344 341 340 338 337 337 335 337 349 358 4 16 17 24 285 325 326 225 278 336 289 313 299 314 324 336 358 345 334 2 17 16 34 331 283 281 300 300 338 306 213 243 273 288 289 265 271 285 278 260 240 261 298 285 265 248 247 305 262 257 257 255 260 252 244 222 192 190 194 196 201
13 10 7 5 4 2 3 2 2 1 360 359 357 355 352 348 346 342 339 336 337 339 340 340 340 356 5 20 50 11 321 310 341 352 244 319 320 311 324 325 324 328 343 351 343 311 294 323 256 6 267 266 300 305 313 358 284 214 232 280 291 293 285 295 295 279 274 248 238 257 258 260 250 133 275 261 258 264 260 250 251 241 228 224 213 207 202 204
9 5 4 3 2 1 2 1 359 357 356 356 355 353 350 346 343 341 337 335 338 340 347 349 344 356 4 24 47 360 298 338 332 321 325 316 319 325 323 320 322 332 328 331 3 70 222 238 239 145 187 262 296 278 281 217 258 245 265 282 275 280 286 289 286 283 287 267 217 226 257 263 221 158 257 262 256 252 251 248 244 230 233 233 226 220 213 210
6 3 2 1 1 1 0 358 356 354 354 354 353 352 348 344 342 340 335 333 336 341 347 345 336 344 354 27 58 298 300 342 326 316 321 312 319 323 317 313 317 326 317 320 346 334 284 255 220 97 158 277 302 281 257 221 281 301 311 296 280 282 290 276 274 281 287 284 228 217 261 263 151 202 243 257 262 161 198 257 248 225 237 237 233 231 221 222
3 1 0 360 360 359 358 355 352 351 351 352 352 351 346 342 342 338 332 331 331 332 337 335 327 327 344 35 143 248 310 326 315 314 314 311 314 312 309 308 307 309 303 300 303 298 300 302 92 166 248 287 313 298 264 257 300 296 335 305 293 325 307 279 277 271 182 280 226 190 283 275 189 217 238 249 258 250 239 265 255 231 241 242 239 238 230 232
0 360 360 359 358 357 355 352 349 350 350 350 352 350 344 341 341 335 328 327 322 322 330 334 329 322 352 33 176 311 317 310 316 317 310 307 307 304 297 297 300 295 282 287 299 301 301 313 101 203 235 125 267 277 307 320 325 297 331 302 303 347 312 283 321 342 148 248 227 118 308 294 246 219 234 248 254 271 276 262 257 241 242 246 243 239 236 235
358 359 358 357 357 354 352 349 348 348 347 349 351 349 343 340 339 331 325 323 314 321 329 340 349 36 93 217 310 1 324 327 343 336 322 304 307 307 294 294 293 278 281 297 302 305 307 312 86 175 216 180 243 300 332 339 345 311 323 335 329 336 286 292 339 48 267 286 23 91 263 285 288 251 228 244 250 258 263 258 259 251 243 246 245 241 240 235
356 356 354 354 355 352 350 348 346 347 346 348 352 349 342 343 340 330 327 320 317 324 333 8 64 112 63 338 336 51 10 5 345 341 333 307 308 308 301 306 290 277 287 297 303 304 317 360 94 131 267 270 25 0 336 334 344 352 341 311 320 255 273 301 292 189 233 289 40 66 246 279 293 287 215 238 251 238 255 259 258 257 250 246 247 242 242 241
353 351 350 351 352 351 349 347 345 345 344 348 352 348 342 348 344 336 331 318 324 329 354 73 111 119 65 347 336 73 38 348 326 333 327 307 305 297 301 310 294 292 288 282 297 305 341 63 124 152 350 339 53 56 3 349 331 344 355 278 282 270 295 321 302 231 198 268 310 253 264 283 289 289 229 208 217 227 248 259 257 257 256 249 250 246 244 246
348 346 347 348 350 349 347 346 344 345 345 349 352 346 346 354 346 339 338 332 331 338 84 99 130 104 66 223 303 329 333 325 319 322 316 304 297 292 301 312 313 326 314 290 311 342 9 32 320 313 32 17 95 79 18 336 308 316 323 260 265 258 287 311 300 304 89 181 241 237 251 271 281 286 285 238 199 238 249 255 257 254 258 255 252 252 247 247
344 344 346 344 346 347 345 345 345 348 348 351 354 345 347 358 347 311 342 342 342 46 94 78 68 58 337 275 330 322 321 316 313 312 311 304 292 296 296 291 332 343 354 355 358 13 2 2 36 13 359 0 79 99 56 279 275 290 295 289 289 271 265 271 264 296 323 259 240 197 253 272 280 288 291 270 193 237 249 247 256 253 255 258 257 257 250 249
341 343 343 339 343 345 344 346 347 352 352 353 358 349 354 7 6 230 343 349 15 86 353 1 38 61 275 295 315 322 320 315 315 313 319 328 305 309 301 302 355 2 24 11 335 344 17 8 17 16 315 292 231 179 203 247 253 267 276 265 279 283 274 272 261 247 261 281 273 232 245 274 283 289 292 291 206 229 250 249 256 254 255 260 258 260 254 249
339 340 339 337 341 343 345 347 348 357 1 360 6 11 7 10 11 322 344 345 62 157 296 294 347 223 283 309 319 328 328 322 334 329 323 329 318 324 336 20 21 31 39 331 293 314 83 4 291 238 251 259 243 219 225 253 262 266 274 261 264 270 274 277 278 265 203 245 280 263 247 272 281 285 287 293 278 243 258 256 254 252 254 258 257 261 259 251
337 337 338 336 340 345 345 346 351 3 9 10 22 43 54 15 356 337 335 315 280 191 244 267 262 241 265 287 302 323 348 352 345 317 302 308 332 343 323 19 24 356 318 191 289 335 70 291 260 236 243 259 259 244 244 265 272 259 248 267 272 263 269 275 278 283 210 186 274 276 268 275 281 284 285 290 291 273 262 257 259 258 253 256 257 260 263 258
334 335 337 336 338 345 344 347 356 1 8 20 42 72 114 94 306 263 266 308 302 204 202 255 276 270 265 274 291 310 29 360 327 308 292 296 342 350 332 29 39 302 308 47 359 353 20 250 255 253 253 273 271 252 252 266 266 252 232 260 276 271 280 284 281 283 233 169 272 279 269 277 282 285 286 288 290 282 264 250 250 254 254 255 256 259 266 268
331 333 337 336 335 342 346 350 356 357 10 31 54 79 81 72 200 233 176 300 295 308 15 42 55 315 299 308 325 4 33 14 311 300 293 342 346 15 348 345 303 288 315 301 273 323 309 264 255 264 282 299 286 270 263 276 274 244 224 244 273 281 287 286 285 290 285 228 267 273 252 281 287 288 286 285 287 279 254 245 242 242 247 253 256 260 266 269
330 333 337 336 333 341 347 344 358 5 15 36 48 48 47 48 34 198 173 280 291 296 280 178 136 235 283 322 350 18 42 198 249 285 306 81 348 10 323 280 281 301 286 259 221 227 271 275 281 298 294 287 285 292 289 281 290 265 231 224 258 275 266 261 279 308 321 283 273 276 256 271 279 282 283 286 292 283 253 253 260 251 243 253 263 267 266 263
330 332 336 337 333 341 349 347 17 16 8 34 29 13 19 21 4 183 169 38 310 290 263 186 45 141 268 325 341 1 25 265 242 248 301 102 276 338 327 270 237 291 279 285 294 239 269 280 304 311 307 334 295 300 288 239 286 295 265 235 237 258 263 263 287 332 341 289 282 284 277 261 258 271 277 283 293 289 283 278 273 267 253 251 260 265 266 264
329 329 334 338 331 341 357 21 12 5 350 26 1 345 353 2 355 193 167 51 315 296 330 7 353 358 337 345 340 353 50 300 265 258 297 186 47 18 321 299 11 277 278 297 320 256 286 315 2 333 309 331 330 299 264 199 279 294 277 269 243 249 264 269 286 308 255 274 287 263 251 274 264 265 273 281 290 289 290 289 281 278 265 252 253 258 264 267
325 323 331 338 334 348 12 24 351 359 42 349 337 337 343 347 345 200 360 25 333 286 344 322 346 20 346 333 359 32 325 301 300 313 55 26 355 36 313 294 311 282 280 349 326 266 291 318 329 326 312 323 325 293 263 166 195 274 286 346 309 278 280 275 267 253 232 275 291 262 200 258 264 259 270 278 287 287 288 288 285 284 271 255 253 257 262 266
319 317 327 343 346 358 22 14 356 32 75 323 327 335 339 336 325 165 57 3 274 158 180 287 53 53 346 334 34 67 272 303 330 325 18 36 15 45 319 270 260 278 293 5 295 275 254 297 301 309 320 315 276 276 281 129 194 278 305 334 293 277 275 266 251 255 251 300 285 268 182 227 259 256 268 276 279 280 281 280 284 287 278 264 259 262 266 271
311 312 323 343 355 351 1 3 12 110 323 319 324 329 331 328 320 71 65 273 269 75 184 317 58 20 346 357 20 20 285 312 291 297 3 49 27 38 278 243 231 279 290 217 269 276 263 253 274 303 293 283 277 286 302 138 230 279 312 298 280 276 257 240 243 255 245 214 267 266 224 226 262 252 261 273 270 269 273 276 281 282 279 273 267 270 274 279
302 307 313 329 352 288 290 325 254 212 304 309 316 323 326 327 33 52 350 252 273 309 214 54 39 316 352 8 348 322 311 291 273 335 19 36 352 3 250 244 58 302 306 311 267 272 276 265 142 233 257 251 308 312 261 184 241 291 335 301 290 286 261 237 242 240 157 230 255 260 247 235 260 256 244 250 259 266 273 279 282 283 287 286 275 274 280 286
295 298 302 320 346 291 305 314 250 250 288 296 311 326 339 4 72 87 266 248 243 304 11 39 2 340 2 11 324 302 321 302 307 27 16 341 351 356 341 344 9 351 331 335 289 279 301 323 274 252 267 76 15 317 308 190 282 354 351 305 308 296 278 255 269 125 207 246 252 260 257 239 248 258 250 245 256 267 274 277 280 283 287 290 295 305 305 301
288 287 291 291 289 322 322 302 283 279 283 298 321 346 62 27 13 172 254 298 304 310 27 5 327 345 341 356 297 290 321 311 329 46 13 346 355 339 332 319 333 332 321 324 317 301 297 281 263 279 308 72 22 330 326 346 3 14 333 318 317 305 296 280 280 249 237 252 259 266 266 243 246 259 265 267 269 273 276 279 282 286 290 300 316 327 324 316
276 271 263 170 127 49 336 296 297 286 286 315 349 43 82 35 292 218 252 306 261 278 6 304 327 331 323 349 326 312 337 316 358 20 353 358 18 331 300 248 265 302 290 317 325 319 301 256 225 322 301 77 19 335 311 317 333 327 306 301 305 305 302 284 272 267 257 258 274 285 293 271 265 273 268 262 264 267 275 288 301 312 322 326 328 328 328 326
252 169 142 130 121 110 63 358 307 298 312 349 43 58 50 309 260 232 249 252 250 317 26 3 334 333 337 338 307 355 11 308 357 8 346 9 25 340 314 315 2 30 298 328 317 323 314 293 214 8 278 341 341 297 245 260 272 255 225 226 266 271 285 287 285 285 280 278 284 288 289 260 271 298 277 250 256 266 289 328 344 349 350 341 334 335 338 335
153 129 132 120 112 93 54 35 339 354 4 39 65 69 81 255 258 225 233 248 291 345 343 334 344 353 344 305 293 33 44 315 349 7 356 18 355 300 293 342 19 31 50 358 307 307 299 284 276 287 278 315 318 297 200 241 276 264 156 314 295 290 279 279 277 276 280 284 279 274 266 240 267 298 290 277 284 302 336 353 353 349 346 340 337 337 336 335
146 133 127 120 144 10 27 14 39 43 52 70 70 113 193 229 231 184 212 244 77 26 330 332 20 38 327 314 322 9 29 340 345 359 336 353 303 266 258 77 65 39 42 28 286 294 289 286 297 311 313 309 300 300 350 313 293 303 320 297 292 295 278 277 276 267 272 279 271 263 269 271 295 296 308 326 323 331 345 347 340 334 334 332 332 331 328 328
151 140 126 48 308 297 291 134 87 68 63 84 110 212 217 221 200 177 213 269 87 86 61 351 350 127 310 326 309 333 0 332 336 352 311 318 280 248 88 93 100 57 20 335 270 281 283 289 298 306 310 307 308 311 281 263 260 295 304 301 296 286 263 278 290 280 272 275 272 270 278 294 302 295 355 348 330 329 335 333 329 328 330 329 327 326 322 320
140 124 99 27 358 319 166 116 100 81 69 89 170 242 219 211 210 184 185 91 53 62 76 278 259 137 108 315 284 306 351 329 324 331 297 269 251 236 64 38 50 38 347 297 259 281 296 293 293 300 309 322 341 324 298 288 271 268 287 314 324 302 297 297 294 295 293 287 289 283 281 287 288 294 337 330 315 319 324 324 325 323 324 324 321 320 318 317
132 110 17 25 26 356 118 121 104 71 70 120 220 252 215 233 254 218 110 69 69 69 85 233 237 36 314 257 270 294 309 274 290 312 286 246 270 46 55 353 340 4 335 336 24 317 330 300 286 308 331 333 333 318 307 319 331 319 314 317 299 281 294 292 280 292 297 289 291 290 281 278 312 310 315 310 307 322 321 318 320 317 317 318 317 316 315 316
122 94 292 41 65 112 124 115 83 64 86 171 199 229 246 267 272 259 74 68 86 107 177 215 220 325 290 284 286 279 267 258 263 263 240 262 290 28 52 355 352 356 342 24 44 349 355 289 283 314 331 323 310 295 311 326 330 332 319 305 294 286 289 286 271 275 288 289 297 300 289 289 316 305 307 315 318 320 318 315 314 313 313 315 315 314 313 313
104 83 256 88 110 132 119 94 63 94 140 192 189 230 278 324 306 299 333 58 100 191 168 170 188 220 231 268 281 244 264 282 265 243 238 258 288 343 47 38 22 353 342 35 31 2 17 289 284 302 310 297 288 296 326 329 319 308 296 293 297 299 303 302 289 286 300 297 297 299 293 289 292 297 311 322 316 313 314 311 310 311 314 316 316 314 312 311
97 187 220 122 146 160 112 77 359 135 155 221 210 223 280 356 3 313 332 19 43 295 73 142 186 208 207 232 273 254 283 289 267 265 260 270 303 28 77 42 33 14 31 52 316 297 296 249 258 278 289 287 290 302 314 308 298 290 285 292 303 309 315 309 299 301 300 288 285 284 283 285 313 310 307 309 303 304 310 309 309 313 315 318 318 316 315 312
111 171 171 126 162 183 93 82 253 174 192 242 252 243 281 336 300 308 331 1 19 32 17 356 192 268 227 220 276 277 306 292 268 284 296 297 348 117 108 44 37 42 42 21 292 300 312 290 281 287 293 288 288 295 302 300 304 299 291 296 301 300 298 289 286 292 288 281 287 283 272 279 327 314 299 300 302 305 306 304 307 313 319 324 324 325 327 322
130 144 185 169 202 209 147 187 203 188 218 242 350 299 306 236 227 322 330 297 304 94 73 316 292 296 254 269 49 258 291 295 280 322 351 287 290 116 81 42 35 43 28 337 287 309 312 318 321 312 308 301 295 299 311 325 330 307 295 297 297 297 300 297 291 289 283 283 291 290 280 287 324 313 302 305 306 304 303 309 320 328 335 337 334 335 334 328
118 89 359 268 308 127 168 192 153 147 193 140 79 284 281 277 287 112 162 234 294 112 130 265 258 100 19 2 25 5 329 345 305 330 342 290 288 324 46 25 29 73 278 251 229 283 287 292 308 302 298 297 296 300 310 317 308 285 283 288 290 295 299 298 295 290 285 284 284 281 283 293 307 308 306 305 305 307 316 332 344 345 344 342 337 335 331 327
133 139 153 325 354 52 56 350 109 119 158 138 126 263 182 195 297 319 147 171 39 68 64 313 355 55 44 23 24 352 321 346 333 319 314 306 307 310 346 352 356 330 279 239 170 112 256 259 266 257 259 272 277 284 293 296 289 282 283 285 288 294 293 289 286 278 276 279 276 268 279 291 301 308 306 304 309 320 336 347 346 341 341 340 334 330 325 325
162 168 160 173 4 92 8 330 128 135 175 156 161 227 162 175 293 323 20 63 61 66 57 30 31 47 42 34 34 301 298 331 314 297 301 305 307 305 321 335 329 315 316 197 150 108 276 272 278 270 264 269 275 282 289 289 285 286 290 290 291 293 287 280 275 273 276 281 280 280 287 294 303 306 302 306 320 339 346 341 335 332 334 334 330 325 321 325
177 170 157 124 140 159 200 208 173 172 184 152 132 161 150 134 167 277 315 349 349 28 88 51 45 63 48 38 74 261 298 320 294 287 319 305 308 316 321 323 306 294 319 137 63 3 263 270 278 273 270 275 279 286 292 291 287 288 290 291 291 289 283 279 277 276 278 281 286 296 300 301 302 301 302 314 331 337 325 322 324 326 330 331 327 322 321 328
118 88 344 15 59 165 116 118 148 159 169 156 138 175 164 167 193 229 259 21 346 342 86 112 111 103 181 185 130 179 281 305 290 302 336 304 302 312 311 307 299 286 48 329 307 276 238 264 276 277 278 279 281 286 287 285 285 287 288 289 291 289 284 282 281 280 283 286 291 299 302 300 299 302 310 318 318 311 314 317 319 324 330 329 325 322 320 323
138 166 165 74 63 107 64 72 116 131 159 165 183 202 160 171 197 230 230 149 181 311 45 112 171 197 195 187 154 181 227 259 274 282 305 305 304 310 297 287 298 313 321 315 293 254 251 277 285 291 289 281 283 285 282 282 288 291 292 293 292 289 283 281 284 292 298 297 298 302 302 300 300 304 311 315 316 320 322 320 318 322 327 326 322 318 314 316
125 99 152 131 121 143 119 88 111 118 157 190 196 201 166 181 190 179 254 185 138 141 111 136 191 221 180 177 188 221 222 216 236 252 262 268 275 285 278 276 292 306 307 302 291 279 273 281 291 297 287 281 289 294 293 294 293 291 292 291 289 287 286 292 302 305 301 299 301 303 301 298 304 309 311 315 319 315 314 316 318 320 322 321 313 304 303 311
118 63 115 118 118 156 139 122 126 141 190 201 196 190 161 185 186 157 137 14 87 121 136 154 184 189 217 256 241 216 215 221 237 250 256 254 260 266 262 266 275 278 277 282 284 278 271 279 292 291 281 284 291 293 296 298 292 285 286 285 287 296 301 305 306 300 297 298 297 294 294 299 304 307 309 313 311 307 310 316 318 318 318 312 296 286 297 307
Height
846 845 844 842 840 839 837 836 834 832 830 828 826 824 822 820 817 815 812 810 808 805 803 801 799 797 794 792 790 789 787 785 785 785 784 784 784 784 784 784 783 783 782 781 779 779 778 778 777 777 777 777 779 779 778 778 779 783 789 795 794 792 790 782 779 776 773 769 765 764 764 766 764 761 758 756 756 754 753 751 748 746 743 742 741 741 741 742
847 845 844 842 841 839 837 836 834 832 830 828 826 824 822 819 817 814 812 809 807 804 802 800 798 796 794 792 790 788 786 784 783 783 783 783 784 785 784 784 783 783 782 781 780 779 779 779 778 779 779 779 780 779 780 780 780 784 791 795 791 785 779 772 771 769 769 767 763 763 763 764 762 760 760 758 756 755 755 749 747 747 742 742 743 742 742 742
847 845 844 842 840 839 837 836 834 832 830 828 826 824 821 819 816 814 811 808 805 803 801 799 798 795 794 793 790 788 786 783 783 783 783 784 785 785 784 784 783 783 782 781 780 780 780 780 779 779 781 781 781 781 782 781 782 783 788 792 783 775 772 769 768 767 766 764 762 762 763 763 761 760 760 759 756 755 754 747 745 745 740 740 743 744 743 742
847 845 844 842 841 839 837 836 834 832 830 828 826 824 821 818 816 813 810 807 804 801 799 798 797 795 794 792 791 789 785 786 787 785 784 784 784 785 784 784 783 783 782 781 781 780 780 780 780 780 782 782 782 783 783 781 782 783 786 784 775 773 774 767 765 765 764 765 762 761 764 762 758 759 759 757 759 754 745 739 739 739 736 737 742 744 743 743
847 845 844 842 841 839 837 836 834 832 830 828 826 823 820 818 815 812 809 806 803 801 798 797 796 794 794 792 792 788 787 794 791 785 785 785 785 785 784 784 783 782 782 781 781 780 780 780 780 782 784 783 782 783 781 779 780 782 781 775 771 775 774 764 763 765 764 765 763 762 764 759 755 757 755 756 759 748 733 731 733 733 732 734 738 741 742 743
847 845 844 843 841 839 837 836 834 832 830 828 825 823 820 817 814 811 808 805 802 800 797 796 795 794 793 792 791 788 792 799 791 785 787 785 785 785 784 784 783 782 782 782 781 781 780 781 781 783 786 785 784 783 780 778 780 782 778 773 771 774 772 764 763 763 763 765 762 761 760 756 756 754 751 753 749 735 725 728 731 729 729 730 733 738 740 740
847 846 844 843 841 839 837 836 834 832 830 827 825 822 819 816 813 809 806 803 801 799 796 795 793 794 793 791 791 790 794 796 788 787 787 786 786 785 785 784 783 782 782 782 781 781 782 782 783 784 787 787 785 783 781 779 780 783 781 774 770 771 770 765 764 763 764 764 759 760 759 756 755 753 751 746 735 727 725 727 729 728 728 730 731 733 734 734
847 846 845 843 841 839 838 836 834 831 829 827 825 822 819 815 811 808 805 802 800 798 796 794 793 793 793 792 792 793 795 793 788 788 787 787 787 785 785 784 783 783 782 782 782 782 783 784 784 785 788 788 786 783 782 781 779 781 781 774 770 768 765 764 765 764 765 764 760 761 759 751 749 753 751 737 726 724 725 727 728 729 729 730 729 728 730 730
848 846 845 843 841 839 837 835 833 831 829 826 824 821 818 813 810 806 804 802 799 797 795 794 793 793 793 792 794 797 795 791 789 789 788 788 787 786 785 784 784 783 782 782 782 782 783 784 784 785 787 787 786 784 783 784 781 779 778 775 771 768 764 764 763 761 762 762 762 762 756 748 748 754 746 727 720 720 723 727 727 729 730 729 727 726 726 726
848 846 845 843 841 839 837 835 833 830 828 826 823 820 816 812 808 805 803 801 799 797 795 794 793 793 793 792 796 799 794 790 790 789 789 788 787 786 785 784 784 783 782 782 782 782 782 783 783 783 785 785 785 785 784 785 782 778 778 776 772 769 765 764 762 758 760 760 759 760 752 746 749 753 740 718 715 720 722 725 726 729 729 726 726 724 724 724
848 846 845 843 841 839 837 834 832 830 827 825 822 819 815 811 807 804 802 800 798 797 795 794 793 793 793 792 798 799 792 790 791 789 789 788 787 786 785 785 784 783 783 782 782 781 781 781 781 782 785 785 785 784 781 780 780 777 778 775 770 769 765 761 761 758 758 758 756 757 751 746 752 751 733 716 714 719 722 722 725 727 725 724 723 723 723 722
848 846 844 843 841 839 836 834 831 829 826 824 821 818 814 810 805 803 801 800 797 796 794 793 792 792 791 792 796 795 790 790 790 789 789 787 787 786 785 785 783 783 783 782 781 780 781 780 781 783 785 785 785 784 779 777 778 776 777 777 769 769 766 758 757 758 758 757 754 757 750 738 744 740 721 716 715 717 722 721 722 723 722 722 721 721 721 719
848 846 844 843 840 838 836 833 830 828 825 823 820 817 813 809 804 801 800 799 797 794 793 791 790 789 790 792 792 791 790 790 789 788 788 787 786 785 785 784 783 783 782 782 781 780 780 780 781 783 783 784 785 782 776 776 777 775 778 778 773 774 768 757 757 758 758 759 754 758 757 731 721 725 718 716 717 718 721 718 718 720 720 720 718 718 716 715
847 845 844 842 840 838 835 832 830 827 824 822 819 816 812 808 803 801 800 799 796 793 791 789 789 788 789 792 790 789 790 789 789 788 788 786 786 785 784 784 783 783 782 781 780 780 780 780 781 782 782 783 783 779 779 780 777 777 779 780 785 782 766 756 760 759 756 760 756 758 766 737 709 714 718 715 718 720 720 716 715 716 716 716 714 714 711 709
846 845 843 841 839 837 834 832 829 826 823 821 818 814 811 808 803 800 799 798 796 792 789 789 789 788 790 792 790 789 790 789 789 788 788 786 785 784 784 784 783 782 782 781 780 780 780 779 781 782 782 781 781 783 786 785 780 782 782 778 785 784 768 759 760 759 756 759 759 758 762 740 709 707 713 715 719 722 720 716 714 713 712 711 709 708 707 704
846 844 842 841 838 836 834 831 828 826 822 819 816 813 811 808 803 800 799 798 795 790 788 789 789 789 792 792 789 789 790 789 789 788 787 787 785 785 784 783 783 783 782 781 781 780 780 780 781 783 783 782 784 788 789 787 784 786 787 780 778 779 774 766 757 757 759 759 760 760 759 741 712 703 711 717 717 719 719 715 713 711 708 706 704 702 701 699
845 843 841 839 838 836 833 831 828 825 821 818 815 812 810 807 803 800 799 798 793 789 789 789 789 790 791 791 790 791 791 790 789 788 787 786 786 785 784 784 783 783 782 781 781 780 781 781 783 785 786 788 789 788 790 792 787 784 787 784 778 777 777 772 760 755 759 759 758 761 760 743 717 702 705 714 715 714 714 711 710 709 705 701 699 697 696 694
844 842 840 838 837 835 833 831 828 824 821 818 814 811 810 807 803 801 799 796 791 789 790 789 791 794 794 790 792 793 791 790 788 787 787 786 785 785 785 784 783 783 783 782 782 782 783 783 786 788 788 790 789 789 793 791 783 782 786 784 780 778 776 773 766 757 754 756 757 763 761 740 719 705 696 702 711 709 707 708 707 705 702 698 695 693 690 688
843 841 840 838 836 835 833 830 827 824 821 817 814 810 807 805 802 801 798 794 794 797 797 795 798 803 799 792 793 794 791 790 788 787 787 786 786 785 784 784 784 785 785 785 785 785 785 785 788 790 787 786 784 785 786 779 776 781 783 785 783 780 773 766 763 757 753 755 753 757 758 737 721 709 692 693 705 705 704 706 705 703 699 695 692 687 684 683
843 841 839 837 836 834 832 830 827 825 822 818 813 808 809 811 807 806 804 799 801 808 805 801 804 807 801 795 794 794 791 789 788 787 787 787 786 785 784 784 784 785 785 787 788 787 787 789 790 789 783 779 780 781 779 774 777 783 785 786 783 782 777 764 757 753 753 757 749 745 750 736 722 713 693 688 698 701 703 703 700 699 696 692 689 682 678 676
842 840 838 836 835 834 832 830 828 826 824 821 814 813 823 829 824 823 821 809 801 806 807 802 804 805 801 799 796 795 794 791 790 789 788 787 786 785 785 784 785 784 784 790 791 788 790 792 787 783 779 778 780 781 780 778 780 784 787 787 782 781 776 763 756 752 753 759 747 740 746 735 721 712 693 685 693 697 699 697 694 693 691 688 684 678 672 667
842 839 838 836 834 833 832 830 829 827 826 823 819 823 832 835 833 832 832 822 806 803 806 803 802 803 800 798 797 797 797 794 791 789 788 788 787 787 786 786 789 787 785 790 792 791 795 791 780 776 778 781 781 781 782 781 782 786 788 788 785 779 773 763 755 750 753 758 747 741 747 737 721 711 694 685 689 690 689 687 685 685 683 681 677 673 668 662
841 838 837 835 833 833 831 830 829 827 826 824 825 830 833 833 833 832 833 831 815 802 802 802 801 802 800 798 798 797 798 798 796 791 789 789 788 789 789 788 791 790 787 788 789 794 795 783 774 776 780 781 780 779 781 780 781 785 786 787 782 774 774 769 755 749 751 753 745 744 750 741 726 714 696 683 683 683 681 679 679 680 678 674 670 667 664 659
839 838 836 834 832 831 830 830 829 828 828 827 829 832 833 833 833 831 832 830 820 806 801 802 801 802 801 799 799 799 800 801 799 792 789 790 790 791 791 789 792 792 787 786 791 795 790 776 773 778 778 779 781 779 781 783 781 779 780 783 779 771 772 768 758 755 755 750 741 744 756 749 731 719 698 681 678 678 678 679 678 678 676 672 668 664 660 656
839 837 835 833 831 830 830 829 829 830 829 829 831 832 833 833 831 831 831 827 820 808 800 800 801 802 801 800 800 800 801 800 796 792 790 791 792 792 791 791 793 792 785 786 793 794 786 778 777 776 775 778 781 780 781 783 783 779 774 773 772 768 766 765 763 766 767 757 738 740 758 750 729 718 700 684 682 676 673 676 674 672 672 670 667 661 655 651
838 836 834 832 830 828 829 829 830 831 829 831 832 831 832 831 830 831 829 824 816 806 801 801 802 803 802 803 801 800 803 800 793 791 791 791 792 793 794 792 792 791 785 784 790 789 782 779 777 776 776 777 781 782 779 780 786 783 769 763 765 766 765 766 768 770 770 759 738 737 753 747 731 719 698 688 688 677 670 671 666 664 665 665 662 656 650 647
837 835 833 832 830 828 829 831 832 831 831 832 831 831 831 829 831 830 826 826 819 810 806 803 803 805 804 805 802 803 809 803 792 791 792 793 792 793 796 794 792 790 784 787 792 787 781 778 776 776 778 779 782 781 773 776 785 779 765 763 765 763 764 764 765 767 763 755 742 737 745 747 738 720 696 691 693 681 672 668 660 657 658 659 656 651 647 643
836 834 833 832 830 829 829 832 832 831 833 832 830 831 829 828 831 826 827 833 822 808 806 804 803 804 803 804 803 805 808 803 798 796 793 794 794 796 798 796 794 791 787 794 796 785 779 779 778 779 782 783 780 773 770 776 780 771 765 769 766 763 765 763 762 762 759 760 750 734 737 745 735 715 697 694 696 687 674 664 656 652 651 652 652 648 644 641
835 833 832 832 831 830 830 831 831 831 831 830 830 829 827 829 828 824 834 838 816 803 806 805 804 807 806 806 805 806 804 801 801 798 795 797 797 798 799 795 795 794 791 796 796 785 780 781 781 783 784 781 773 769 771 777 775 770 771 770 765 764 764 761 759 757 759 764 749 727 730 738 726 709 700 696 694 683 669 659 653 648 646 648 648 646 644 641
834 832 831 831 830 830 830 830 830 830 830 829 829 827 827 828 826 831 842 834 814 808 806 804 809 813 812 811 810 807 804 800 798 797 798 799 799 798 797 794 795 796 796 798 796 787 782 781 780 780 778 773 770 769 771 774 772 770 770 767 764 761 758 758 757 757 764 761 739 720 722 731 723 704 695 691 682 670 661 656 651 645 643 644 645 646 646 643
833 831 831 830 830 830 829 830 829 829 830 828 827 826 827 827 830 839 838 822 814 813 807 810 818 816 815 819 816 808 805 803 799 800 804 803 801 800 797 797 798 798 798 798 794 786 781 781 776 772 773 771 771 769 768 773 774 771 768 767 767 760 753 755 755 759 766 752 727 713 714 726 723 695 681 680 671 663 660 656 651 648 646 643 642 645 648 647
832 831 830 830 830 829 829 830 829 829 829 827 827 826 826 832 836 837 827 815 815 815 813 819 822 819 819 821 817 810 808 807 803 806 810 809 807 805 804 806 804 805 805 799 794 787 780 776 773 770 771 772 773 773 771 769 769 768 767 770 772 765 760 760 755 755 754 734 716 712 714 722 712 686 677 677 669 662 657 651 650 651 650 648 648 651 652 650
831 830 830 830 830 829 829 829 829 829 828 827 828 826 829 840 839 832 827 821 818 818 819 822 822 822 820 816 815 812 810 811 810 810 811 811 811 810 810 810 809 812 812 805 800 796 783 772 771 771 769 772 775 779 778 770 768 770 767 769 773 772 771 766 753 745 738 723 712 712 717 717 702 685 679 675 667 660 653 652 655 657 660 660 660 659 657 655
831 830 831 830 830 829 829 829 829 828 828 828 828 827 834 842 835 831 832 826 821 820 822 824 824 822 819 817 818 817 816 814 814 814 813 812 815 816 814 813 812 812 813 810 804 803 798 781 773 772 771 774 775 775 776 772 770 769 764 765 770 771 772 765 754 747 738 727 719 717 720 714 700 687 676 668 663 657 658 665 669 668 668 667 664 661 659 657
830 831 831 831 830 830 829 830 829 828 829 828 829 833 838 836 830 832 832 826 825 825 825 826 825 822 821 820 820 821 823 820 817 818 817 816 819 821 817 814 816 814 815 819 811 805 805 787 770 772 775 775 774 770 771 772 771 767 765 768 766 764 765 758 750 743 735 731 726 720 712 699 689 680 670 668 665 663 673 681 679 675 672 668 665 660 657 656
830 831 832 831 831 830 830 830 829 829 830 830 832 836 835 829 828 831 828 825 828 829 828 827 826 827 826 823 822 822 825 825 823 823 820 818 819 818 814 815 820 819 819 825 819 810 807 789 770 773 776 773 773 774 773 775 774 769 768 769 760 756 758 756 748 738 733 733 723 710 700 691 689 681 675 681 680 679 687 687 681 677 673 668 663 658 654 652
829 831 832 831 831 831 831 830 829 829 831 832 833 833 832 828 827 829 827 827 829 828 831 832 829 829 829 829 828 826 828 827 826 826 823 821 818 813 813 816 821 823 822 825 821 813 812 799 779 775 776 773 775 778 775 774 775 772 770 767 758 753 753 754 751 739 734 730 716 706 703 700 699 692 689 697 694 691 692 686 680 675 670 665 661 657 654 649
829 831 831 831 832 831 831 830 829 830 832 834 834 833 835 831 827 828 827 828 829 828 832 835 831 829 833 837 832 827 830 829 827 828 826 822 816 811 815 820 822 825 825 824 820 814 815 808 786 773 776 779 778 778 775 772 773 773 771 768 765 765 763 760 755 746 740 734 720 710 704 699 701 699 699 702 698 695 692 685 680 675 669 667 662 657 653 647
829 831 831 832 832 831 831 830 830 832 832 835 836 833 834 832 828 829 828 828 830 830 832 835 833 832 834 835 832 829 829 828 827 828 825 820 813 813 823 828 828 830 826 822 821 819 819 815 796 778 780 786 782 778 779 777 776 775 774 771 769 770 767 762 758 752 750 744 729 717 707 704 707 703 698 699 696 695 690 681 678 675 670 668 663 657 651 646
829 829 830 832 831 831 831 829 831 833 832 835 838 835 834 833 829 829 828 827 829 830 833 834 835 834 832 832 833 832 828 825 825 826 823 818 812 819 835 837 832 831 826 822 825 826 827 825 811 794 793 796 787 781 785 787 788 788 783 777 771 766 760 758 753 747 750 753 745 736 726 713 707 700 695 698 694 690 687 681 677 674 670 667 664 659 652 647
829 828 830 832 831 831 831 830 833 836 835 838 841 839 836 832 829 829 829 828 828 829 830 832 833 833 833 833 832 831 829 825 825 823 821 817 811 820 838 840 835 833 829 828 831 832 834 835 826 814 808 801 787 779 785 792 793 791 784 775 772 769 768 772 766 750 751 758 754 750 737 713 702 702 698 697 693 688 687 684 677 672 670 667 664 660 655 651
827 827 830 832 831 831 831 831 837 841 840 840 838 838 836 832 831 831 829 828 829 829 830 831 833 833 834 834 832 832 831 828 826 824 821 817 814 822 839 841 837 834 833 836 836 832 834 835 830 820 808 798 788 782 788 791 787 785 780 773 773 775 776 783 781 765 759 757 748 747 737 708 697 701 698 695 695 692 690 687 680 675 671 668 665 662 659 654
827 829 831 831 831 832 830 831 837 843 844 841 838 837 835 833 834 832 831 831 830 831 831 830 833 834 833 834 834 833 833 829 826 824 823 823 822 830 841 841 837 836 836 840 838 832 830 826 821 818 808 796 788 785 786 787 786 785 780 774 776 779 778 781 779 770 766 759 750 750 737 708 696 699 697 695 695 694 692 689 684 680 676 673 669 666 664 658
829 831 832 831 831 832 829 827 830 837 841 840 838 837 835 835 836 834 833 833 831 832 834 833 834 835 834 836 836 835 835 834 830 828 832 834 829 831 838 839 839 840 840 842 840 836 834 828 826 835 833 814 797 794 794 793 793 791 783 778 778 778 778 778 773 769 767 756 749 751 735 709 699 699 697 696 695 693 691 689 689 690 689 686 680 673 669 662
829 831 832 832 831 831 831 828 827 832 837 840 838 837 836 835 836 837 835 835 835 836 836 836 836 837 840 840 839 839 840 840 840 838 839 838 832 830 835 839 842 842 841 840 837 837 840 837 837 850 855 840 820 813 811 805 803 798 789 785 783 781 782 780 777 778 771 755 749 749 733 710 703 702 699 698 696 693 693 696 699 700 699 696 689 681 674 665
825 826 831 834 833 832 834 834 833 833 836 839 838 837 838 836 836 838 836 836 838 838 838 840 839 840 845 846 845 848 846 844 848 847 843 842 838 835 836 838 840 841 838 836 835 837 842 839 837 842 845 836 822 814 811 809 806 800 793 789 787 785 785 783 782 781 769 755 750 744 729 715 711 710 706 700 698 700 705 709 707 703 700 697 691 685 677 668
821 821 825 830 831 834 836 837 837 836 835 835 833 835 839 839 838 838 837 838 840 840 841 848 848 847 851 852 852 853 850 848 851 849 846 846 843 839 837 836 837 836 833 834 835 838 843 841 835 835 833 822 813 810 809 808 804 797 793 791 789 787 784 781 779 771 760 757 751 737 729 727 722 717 711 705 706 713 716 713 708 703 699 696 690 683 677 671
820 819 822 823 824 829 833 834 834 836 836 835 835 836 839 841 840 840 839 840 842 840 841 850 857 857 855 856 856 856 854 852 850 848 848 849 846 845 842 837 834 832 832 835 835 836 843 841 830 829 827 816 809 808 807 805 800 795 792 789 786 783 779 773 768 758 754 756 749 737 735 734 723 713 711 711 714 718 716 710 705 701 695 691 686 680 676 672
821 822 825 825 823 826 831 832 834 836 837 837 838 838 839 841 842 842 841 843 844 843 842 849 859 862 857 855 856 858 856 853 852 851 851 851 851 850 848 841 832 829 832 836 836 834 839 837 824 823 824 815 808 807 805 803 799 793 789 785 780 777 771 763 757 750 748 748 742 735 733 728 717 711 711 712 712 713 711 705 700 696 691 687 682 678 676 672
820 820 823 826 829 832 834 834 835 836 837 838 838 838 840 841 841 842 843 843 844 845 847 851 858 860 858 856 856 857 855 854 856 855 852 853 853 850 848 842 833 831 833 836 835 831 834 833 823 821 825 817 806 804 803 801 797 791 785 780 775 769 761 754 749 746 746 744 735 732 731 723 713 709 708 706 706 708 706 699 694 691 688 684 679 677 675 669
817 817 818 821 826 832 834 834 836 836 836 838 837 836 839 840 841 843 844 842 843 846 850 854 856 856 855 855 855 855 854 853 855 853 850 852 851 848 846 841 836 838 838 836 834 830 832 832 824 824 829 819 805 802 800 795 793 790 784 777 769 762 755 751 749 747 746 742 735 732 731 721 709 705 703 702 705 706 701 694 689 685 683 681 678 675 672 665
818 818 818 817 820 828 832 834 836 835 833 834 833 834 837 839 841 843 842 843 847 849 850 852 852 852 853 853 852 852 852 851 850 848 847 847 845 843 843 839 837 840 840 837 835 830 830 831 828 829 829 817 805 802 799 797 798 794 782 769 763 760 756 754 751 744 739 737 734 730 724 714 707 705 703 700 700 699 695 690 686 681 677 677 676 672 667 661